Location: LC-39B
(28.6273°N, 80.6211°W)
Time: 10:17:15
(UTC+00:00)

ISS - Visible Passes

Search period start: 27 January 2015 00:00
Search period end: 06 February 2015 00:00
Orbit: 402 x 410 km, 51.6° (Epoch: 27 January)

Date Brightness Start Highest point End Pass type
(mag) Time Alt. Az. Time Alt. Az. Time Alt. Az.
27 Jan -0.9 10:38:41 15° NNE 10:39:46 17° NE 10:42:05 10° E visible
28 Jan -3.4 11:22:04 16° NW 11:24:37 72° SW 11:27:54 10° SE visible
29 Jan -2.5 10:32:50 46° NE 10:32:50 46° NE 10:36:00 10° ESE visible
30 Jan -1.8 11:16:24 19° WSW 11:17:20 21° SW 11:19:52 10° S visible
31 Jan -1.4 10:27:18 23° SSE 10:27:18 23° SSE 10:28:45 10° SSE visible
02 Feb -2.4 00:29:25 10° SSW 00:31:47 37° S 00:31:47 37° S visible
02 Feb -1.7 23:38:20 10° S 23:40:45 20° SE 23:42:41 13° E visible
03 Feb -0.2 01:14:30 10° W 01:15:25 15° W 01:15:25 15° W visible
04 Feb -2.5 00:22:00 10° WSW 00:25:10 47° NW 00:26:12 33° N visible
04 Feb -3.3 23:30:01 10° SW 23:33:14 68° SE 23:36:29 10° NE visible
